TimeEDT,TemperatureF,Dew PointF,Humidity,Sea Level PressureIn,VisibilityMPH,Wind Direction,Wind SpeedMPH,Gust SpeedMPH,PrecipitationIn,Events,Conditions,WindDirDegrees,DateUTC
12:58 AM,54.0,37.9,55,30.12,10.0,West,8.1,-,N/A,,Clear,270,2013-10-27 04:58:00
1:58 AM,54.0,39.0,57,30.11,10.0,West,6.9,-,N/A,,Clear,280,2013-10-27 05:58:00
2:58 AM,55.0,39.9,57,30.09,10.0,West,8.1,-,N/A,,Clear,260,2013-10-27 06:58:00
3:58 AM,55.0,37.9,53,30.08,10.0,West,8.1,-,N/A,,Clear,270,2013-10-27 07:58:00
4:58 AM,53.1,36.0,52,30.08,10.0,West,8.1,-,N/A,,Clear,270,2013-10-27 08:58:00
5:58 AM,52.0,37.0,57,30.09,10.0,West,8.1,-,N/A,,Clear,280,2013-10-27 09:58:00
6:58 AM,53.1,36.0,52,30.09,10.0,WSW,6.9,-,N/A,,Clear,250,2013-10-27 10:58:00
7:58 AM,53.1,42.1,66,30.10,10.0,West,5.8,-,N/A,,Clear,260,2013-10-27 11:58:00
8:58 AM,55.9,37.9,51,30.12,10.0,West,9.2,-,N/A,,Clear,280,2013-10-27 12:58:00
9:58 AM,57.9,41.0,53,30.13,10.0,NW,9.2,-,N/A,,Clear,320,2013-10-27 13:58:00
10:58 AM,60.1,41.0,49,30.13,10.0,NW,5.8,-,N/A,,Clear,320,2013-10-27 14:58:00
11:58 AM,63.0,43.0,48,30.13,10.0,NW,5.8,-,N/A,,Clear,310,2013-10-27 15:58:00
12:58 PM,64.9,43.0,45,30.10,10.0,WNW,4.6,-,N/A,,Clear,300,2013-10-27 16:58:00
1:58 PM,66.0,42.1,42,30.08,10.0,Calm,Calm,-,N/A,,Clear,0,2013-10-27 17:58:00
2:58 PM,64.9,45.0,48,30.08,10.0,South,5.8,-,N/A,,Clear,180,2013-10-27 18:58:00
3:58 PM,64.9,46.9,52,30.08,10.0,South,8.1,-,N/A,,Clear,170,2013-10-27 19:58:00
4:58 PM,64.0,44.1,48,30.08,10.0,South,4.6,-,N/A,,Clear,180,2013-10-27 20:58:00
5:58 PM,61.0,44.1,54,30.09,10.0,South,3.5,-,N/A,,Clear,170,2013-10-27 21:58:00
6:58 PM,55.9,46.9,72,30.10,10.0,Calm,Calm,-,N/A,,Clear,0,2013-10-27 22:58:00
7:58 PM,52.0,46.9,83,30.12,10.0,Calm,Calm,-,N/A,,Clear,0,2013-10-27 23:58:00
8:58 PM,53.1,48.0,83,30.13,10.0,Calm,Calm,-,N/A,,Clear,0,2013-10-28 00:58:00
9:58 PM,51.1,48.0,89,30.15,9.0,Calm,Calm,-,N/A,,Clear,0,2013-10-28 01:58:00
10:58 PM,50.0,46.9,89,30.17,9.0,Calm,Calm,-,N/A,,Clear,0,2013-10-28 02:58:00
11:58 PM,48.9,48.0,97,30.16,8.0,Calm,Calm,-,N/A,,Clear,0,2013-10-28 03:58:00